Regional Weather Roundup
Issued by NWS

Home | Current Version | Previous Version | Graphics & Text | Print | Product List | Glossary Off
Versions: 1 2 3 4 5 6 7 8 9 10 11 12 13 14 15 16 17 18 19 20 21 22 23 24 25 26 27 28 29 30 31 32 33 34 35 36 37 38 39 40 41 42 43 44 45 46 47 48 49 50

000
ASUS43 KLSX 201807
RWRMO

WEATHER SUMMARY FOR MISSOURI
NATIONAL WEATHER SERVICE SPRINGFIELD MO
1200 PM CST SAT JAN 20 2018

NOTE: "FAIR" INDICATES FEW OR NO CLOUDS BELOW 12,000 FEET WITH NO
       SIGNIFICANT WEATHER AND/OR OBSTRUCTIONS TO VISIBILITY.
       CURRENT SKY AND/OR WEATHER CONDITIONS ARE NOT AVAILABLE FOR
       CHILLICOTHE AND FARMINGTON.

MOZ001>031-035>038-043-044-053-054-201900-
...NORTHERN AND WESTERN MISSOURI...

CITY           SKY/WX    TMP DP  RH WIND       PRES   REMARKS
KANSAS CTY INT CLOUDY    51  43  74 S13       29.88F
6HR MIN TEMP:  44; 6HR MAX TEMP:  52; 6HR PCP: TRACE;

KANSAS C DTWN  CLOUDY    52  43  71 S10       29.89F
6HR MIN TEMP:  46; 6HR MAX TEMP:  52;

LEE`S SUMMIT   CLOUDY    51  44  77 S10       29.90F
6HR MIN TEMP:  45; 6HR MAX TEMP:  51;

ST JOSEPH      CLOUDY    52  45  77 S13       29.88F
6HR MIN TEMP:  38; 6HR MAX TEMP:  52;

CHILLICOTHE      N/A     52  44  74 S12       29.91F
6HR MIN TEMP:  38; 6HR MAX TEMP:  53;

KIRKSVILLE     CLOUDY    50  44  80 SW13      29.93F
6HR MIN TEMP:  36; 6HR MAX TEMP:  51;


$$
MOZ066>068-077>081-088>096-101>105-201900-
...SOUTHWEST MISSOURI...

CITY           SKY/WX    TMP DP  RH WIND       PRES   REMARKS
SPRINGFIELD    MOSUNNY   57  47  69 S14       29.93F
6HR MIN TEMP:  44; 6HR MAX TEMP:  58;

JOPLIN         CLOUDY    56  48  74 S17G29    29.92F
6HR MIN TEMP:  50; 6HR MAX TEMP:  56;

BRANSON        MOSUNNY   59  46  63 S13G20    29.99F

$$
MOZ032>034-039>042-045>050-055>058-069>072-201900-
...CENTRAL MISSOURI...

CITY           SKY/WX    TMP DP  RH WIND       PRES   REMARKS
COLUMBIA       CLOUDY    48  41  76 S7        29.96F
6HR MIN TEMP:  34; 6HR MAX TEMP:  48;

JEFFERSON CITY CLOUDY    51  42  71 E6        29.96F
6HR MIN TEMP:  30; 6HR MAX TEMP:  51; 6HR PCP: TRACE;

ROLLA          CLOUDY    53  42  66 S16       29.98F
6HR MIN TEMP:  40; 6HR MAX TEMP:  53;

SEDALIA        CLOUDY    54  47  77 SW15      29.94F
6HR MIN TEMP:  44; 6HR MAX TEMP:  54;

WHITEMAN AFB   CLOUDY    51  44  78 S8        29.88F
WARRENSBURG    CLOUDY    50  45  81 S5        29.92F
OSAGE BEACH    CLOUDY    54  43  66 S6        29.96F

$$
MOZ051-052-059>065-201900-
...EAST CENTRAL MISSOURI...

CITY           SKY/WX    TMP DP  RH WIND       PRES   REMARKS
ST LOUIS INTL  CLOUDY    53  43  68 S7        30.01F
6HR MIN TEMP:  30; 6HR MAX TEMP:  53;

SPIRIT OF STL  CLOUDY    55  44  66 SW9G17    29.99F
6HR MIN TEMP:  40; 6HR MAX TEMP:  55;

ST CHARLES     CLOUDY    50  41  71 S6        30.00F
6HR MIN TEMP:  24; 6HR MAX TEMP:  50;


$$
MOZ072>076-082>087-097>100-106>115-201900-
...SOUTH CENTRAL AND SOUTHEAST MISSOURI...

CITY           SKY/WX    TMP DP  RH WIND       PRES   REMARKS
CAPE GIRARDEAU CLOUDY    43  29  57 S14       30.11F
6HR MIN TEMP:  28; 6HR MAX TEMP:  43;

FARMINGTON     SUNNY     54  39  57 S15       30.03F
6HR MIN TEMP:  32; 6HR MAX TEMP:  54;

POPLAR BLUFF   CLOUDY    46  35  65 S9        30.11F
6HR MIN TEMP:  28; 6HR MAX TEMP:  46;

WEST PLAINS    CLOUDY    52  41  66 S7        30.03F
6HR MIN TEMP:  36; 6HR MAX TEMP:  52;


$$



USA.gov is the U.S. government's official web portal to all federal, state and local government web resources and services.